Regional Weather Roundup
Issued by NWS

Home | Current Version | Previous Version | Text Only | Print | Product List | Glossary On
Versions: 1 2 3 4 5 6 7 8 9 10 11 12 13 14 15 16 17 18 19 20 21 22 23 24 25 26 27 28 29 30 31 32 33 34 35 36 37 38 39 40 41 42 43 44 45 46 47 48 49 50
000
ASUS44 KFWD 230303
RWRTX
NORTH TEXAS HOURLY WEATHER ROUNDUP
NATIONAL WEATHER SERVICE FORT WORTH TX
1000 PM CDT WED OCT 22 2014

NOTE: "FAIR" INDICATES FEW OR NO CLOUDS BELOW 12,000 FEET WITH NO
SIGNIFICANT WEATHER AND/OR OBSTRUCTIONS TO VISIBILITY.

TXZ118-119-230400-
DALLAS/FORT WORTH METROPLEX

CITY           SKY/WX    TMP DP  RH WIND       PRES   REMARKS
DFW AIRPORT    CLOUDY    72  55  55 E8        30.11R
DALLAS LOVE    CLOUDY    73  54  51 E10       30.11R
FTW MEACHAM    CLOUDY    74  57  55 E7        30.10R
DAL-EXECUTIVE  CLOUDY    70  56  61 E6        30.11R
FTW-ALLIANCE   CLOUDY    71  57  61 SE7       30.11R
FTW-NAS-JRB    CLOUDY    78  56  46 SE7       30.14S
FTW-SPINKS     CLOUDY    68  58  69 CALM      30.12S
ARLINGTON      CLOUDY    72  56  57 E5        30.11R
GRAND PRAIRIE  CLOUDY    71  59  64 E3        30.13R
ADDISON        MOCLDY    73  54  49 E6        30.12
MESQUITE       CLOUDY    69  53  56 E7        30.13
LANCASTER      CLOUDY    68  53  58 E3        30.13R
$$

TXZ091>094-102>105-117-120-121-131>134-230400-
NORTH CENTRAL TEXAS

CITY           SKY/WX    TMP DP  RH WIND       PRES   REMARKS
SHRMAN/DENISON CLOUDY    68  59  72 E6        30.13S
GAINESVILLE    CLOUDY    69  57  67 SE8       30.13S
BOWIE          CLOUDY    67  61  80 SE3       30.12R
BRIDGEPORT     CLOUDY    71  60  70 SE5       30.13R
DECATUR        CLOUDY    71  56  59 SE9       30.12S
DENTON         CLOUDY    71  57  61 SE8       30.11R
MCKINNEY       CLOUDY    67  56  67 SE5       30.12S
GREENVILLE     CLOUDY    64  54  68 E5        30.14R
ROCKWALL       CLOUDY    68  55  62 SE6       30.12R
TERRELL        CLOUDY    70  54  56 E8        30.13R
WAXAHACHIE     CLOUDY    68  57  69 CALM      30.13S
CLEBURNE       CLOUDY    72  59  64 E8        30.13R
GRANBURY       CLOUDY    73  59  63 E6        30.12R
$$

TXZ083>090-098>101-113>116-127>130-139>142-154-155-230400-
WESTERN NORTH TEXAS

CITY           SKY/WX    TMP DP  RH WIND       PRES   REMARKS
WICHITA FALLS  MOCLDY    65  62  90 CALM      30.11R
WF-KICKAPOO    MOCLDY    68  59  72 N7        30.12R
VERNON         MOCLDY    63  61  94 E3        30.11F
ABILENE        PTCLDY    64  57  78 S6        30.13R
ABILENE-DYESS  PTCLDY    62  58  85 SE1       30.12R
BRECKENRIDGE   MOCLDY    68  63  82 SE3       30.10F
MINERAL WELLS  CLOUDY    69  60  73 SE6       30.09S
STEPHENVILLE   CLOUDY    70  58  64 SE6       30.14S
COMANCHE       CLOUDY    69  60  72 SE5       30.12R
COLEMAN        CLOUDY    65  61  85 CALM      30.12S
BRADY          MOCLDY    70  52  52 NE3       30.12S
$$

TXZ143>147-156>162-174-175-230400-
CENTRAL TEXAS

CITY           SKY/WX    TMP DP  RH WIND       PRES   REMARKS
WACO           CLOUDY    69  58  67 E5        30.11R
WACO-TSTC      CLEAR     68  57  68 CALM      30.11S
WACO-MCGREGOR  CLOUDY    70  55  60 CALM      30.12S
HILLSBORO      CLOUDY    71  53  53 E7        30.12R
CORSICANA      MOCLDY    69  56  62 E7        30.13R
MEXIA          MOCLDY    67  57  71 CALM      30.11R
HEARNE         CLOUDY    69  58  68 E3        30.11R
CAMERON        CLOUDY    69  60  71 CALM      30.11R
TEMPLE         CLOUDY    72  54  53 E7        30.10S
KILLEEN        MOCLDY    73  59  60 E8        30.11R
KILLEEN-SKYLRK CLOUDY    72  55  56 SE7       30.10R
FORT HOOD      CLOUDY    72  60  66 CALM      30.11R
GATESVILLE     CLOUDY    70  61  73 CALM      30.13R
HAMILTON       CLOUDY    71  57  61 SE9       30.13R
LAMPASAS       CLOUDY    71  62  73 CALM      30.11S
$$

TXZ095>097-106>112-122>126-135>138-148>153-164>167-230400-
EAST TEXAS

CITY           SKY/WX    TMP DP  RH WIND       PRES   REMARKS
PARIS          PTCLDY    63  48  59 SE8       30.16R
SULPHUR SPRNGS MOCLDY    63  54  73 E5        30.16R
MOUNT PLEASANT CLEAR     62  52  70 NE3       30.16R
MINEOLA        MOCLDY    61  57  88 CALM      30.14S
TYLER          PTCLDY    67  53  61 E8        30.12F
LONGVIEW       CLEAR     60  53  77 E6        30.14R
MARSHALL       CLEAR     58  55  87 CALM      30.17R
ATHENS         MOCLDY    61  55  82 CALM      30.12R
JACKSONVILLE   CLEAR     65  54  67 E5        30.15S
HENDERSON      CLEAR     60  54  78 E3        30.15R
NACOGDOCHES    CLEAR     55  52  88 CALM      30.14R
LUFKIN         CLEAR     63  55  75 E5        30.12R
$$

SUPPLEMENTAL OBSERVATIONS (CENTRAL)

CITY           SKY/WX    TMP DP  RH WIND       PRES   REMARKS
$$

SUPPLEMENTAL OBSERVATIONS (WEST)

CITY           SKY/WX    TMP DP  RH WIND       PRES   REMARKS
$$

SUPPLEMENTAL OBSERVATIONS (EAST)

CITY           SKY/WX    TMP DP  RH WIND       PRES   REMARKS
$$

SUPPLEMENTAL OBSERVATIONS ARE A COLLECTION OF AUTOMATED INSTRUMENTS
THAT ARE MAINTAINED BY A VARIETY OF FEDERAL AND STATE AGENCIES.
CERTAIN ELEMENTS...SUCH AS HUMIDITY VALUES AND SUSTAINED WIND
SPEEDS...MAY BE APPROXIMATED.




USA.gov is the U.S. government's official web portal to all federal, state and local government web resources and services.